Location: Newark
(48.8511°N, 7.0794°E)
Time: 17:15:55
(UTC+00:00)

ISS - Visible Passes

Search period start: 22 November 2019 00:00
Search period end: 02 December 2019 00:00
Orbit: 412 x 421 km, 51.6° (Epoch: 23 November)

Date Brightness Start Highest point End Pass type
(mag) Time Alt. Az. Time Alt. Az. Time Alt. Az.
22 Nov -1.7 17:28:08 10° S 17:29:54 16° SSE 17:29:54 16° SSE visible
23 Nov -1.3 16:41:24 10° SSE 16:42:09 11° SE 16:42:54 10° ESE visible
23 Nov -1.7 18:15:00 10° SW 18:16:34 25° SW 18:16:34 25° SW visible
24 Nov -2.9 17:26:49 10° SSW 17:29:55 35° SSE 17:30:14 34° SE visible
25 Nov -2.2 16:38:52 10° SSW 16:41:36 23° SE 16:43:49 13° E visible
25 Nov -2.1 18:14:41 10° WSW 18:16:44 34° WSW 18:16:44 34° WSW visible
26 Nov -3.8 17:26:16 10° WSW 17:29:36 72° SSE 17:30:16 52° E visible
27 Nov -3.3 16:37:56 10° SW 16:41:11 49° SSE 16:43:45 15° ENE visible
27 Nov -2.0 18:14:37 10° W 18:16:38 32° WNW 18:16:38 32° WNW visible
28 Nov -3.7 17:26:03 10° W 17:29:24 69° NNW 17:30:05 50° NE visible
29 Nov -3.8 16:37:31 10° WSW 16:40:53 88° NNW 16:43:30 16° ENE visible
29 Nov -1.8 18:14:32 10° WNW 18:16:24 28° WNW 18:16:24 28° WNW visible
30 Nov -3.4 17:25:56 10° W 17:29:15 52° N 17:29:48 45° NNE visible
01 Dec -3.5 16:37:20 10° W 16:40:39 59° N 16:43:12 16° ENE visible
01 Dec -1.8 18:14:21 10° WNW 18:16:05 27° WNW 18:16:05 27° WNW visible
